Location: Grossmotten
(48.5500°N, 15.3833°E)
Time: 22:46:13
(UTC+00:00)

Cosmos 2082 Rocket - Pass Details

Date: 15 November 2019
Orbit: 833 x 854 km, 71.0° (Epoch: 06 December)

Event Time Altitude Azimuth Distance (km) Brightness Sun altitude
Exits shadow 03:09:57 47° 168° (SSE) 1,122 2.8 -29.0°
Maximum altitude 03:11:25 63° 113° (ESE) 951 2.5 -28.7°
Drops below altitude 10° 03:17:04 10° 33° (NNE) 2,491 5.1 -27.8°
Sets 03:19:32 0° 31° (NNE) 3,429 5.8 -27.4°
